Weather in Vysoky

Russia / Khanty-Mansi Autonomous Okrug — Yugra     61°10′01″N   75°57′46″E
temp.,
°C
wind,
m/s
gust,
m/s
humid.,
%
clouds,
%
prec.,
mm/h
press.,
hPa
HPBL,
m
12 may, wed
wed1223:00+12s3845100 0.0 1020164
02:00+11sw2253100 0.0 101835
05:00+10nnw377092 0.1 1018288
08:00+8nnw51081100 0.1 1018577
11:00+7n61078100 0.1 1020799
14:00+11n694354 0.0 10191525
17:00+12n58310 0.0 10201772
20:00+9n25505 0.0 1021106
13 may, thu
thu1323:00+6n11600 0.0 102010
02:00+5wsw11603 0.0 101910
05:00+6sw2660100 0.0 1018145
08:00+8sw41053100 0.0 1016366
11:00+7wsw3880100 3.3 1016478
14:00+12nnw796067 0.1 10171364
17:00+10nnw61054100 0.1 10201356
20:00+7nnw510492 0.0 1022850
14 may, fri
fri1423:00+4nnw310565 0.0 1024462
02:00+2nw256614 0.0 1024111
05:00+3w136493 0.0 1024119
08:00+6sw354887 0.0 1023461
11:00+10sw61244100 0.0 1018825
14:00+17wsw61249100 0.1 10131041
17:00+23wnw5134427 0.8 10101532
20:00+18n5106255 0.1 1010323
15 may, sat
sat1523:00+14w24775 0.2 101059
02:00+13w3884100 0.4 1010167
05:00+13s2383100 0.6 100982
08:00+14w258698 0.4 1009175
11:00+20wnw51061100 0.8 10071484
14:00+9ne4685100 2.1 1011357
17:00+8ne4780100 2.4 1013525
20:00+7ne467975 0.0 1015578
16 may, sun
sun1623:00+5ne268562 0.0 1017336
02:00+4ne248893 0.0 1017128
05:00+5ne2381100 0.0 1018204
08:00+5ene3478100 0.0 1019344
11:00+5e2379100 0.1 1019444
14:00+8ese2268100 0.0 1019657
17:00+10ese3361100 0.0 1017684
20:00+8ese3568100 0.0 1016304